AAL8500 KCLE-KHXD

Flight info

Callsign AAL8500
Flight time 1h 35m
Altitude 36000
Route KKIDS1 NUSMM
Aircraft B738/M-SDE2E3FGHIRWXY/LB1

Departure

Time 2026-04-30 02:27
Airport Cleveland Hopkins International Airport (KCLE)

Arrival

Time 2026-04-30 04:02
Airport Hilton Head Airport (KHXD)
Time Latitude Longitude Altitude Speed Heading
2026-04-30 02:03 41.40853 -81.83991 793 ft 0 kts 313°
2026-04-30 02:16 41.40847 -81.83982 793 ft 2 kts 313°
2026-04-30 02:17 41.40836 -81.83967 793 ft 1 kts 313°
2026-04-30 02:17 41.40830 -81.83958 793 ft 2 kts 304°
2026-04-30 02:17 41.40825 -81.83939 793 ft 2 kts 270°
2026-04-30 02:17 41.40828 -81.83920 793 ft 2 kts 242°
2026-04-30 02:18 41.40833 -81.83910 793 ft 1 kts 224°
2026-04-30 02:18 41.40838 -81.83904 793 ft 0 kts 223°
2026-04-30 02:20 41.40832 -81.83911 793 ft 4 kts 221°
2026-04-30 02:21 41.40775 -81.83967 793 ft 15 kts 208°
2026-04-30 02:21 41.40682 -81.84041 793 ft 14 kts 212°
2026-04-30 02:21 41.40619 -81.84137 793 ft 13 kts 253°
2026-04-30 02:21 41.40611 -81.84263 793 ft 14 kts 271°
2026-04-30 02:22 41.40616 -81.84438 791 ft 23 kts 273°
2026-04-30 02:22 41.40625 -81.84656 790 ft 24 kts 273°
2026-04-30 02:22 41.40636 -81.84895 787 ft 26 kts 273°
2026-04-30 02:22 41.40646 -81.85136 784 ft 25 kts 271°
2026-04-30 02:23 41.40649 -81.85349 783 ft 21 kts 257°
2026-04-30 02:23 41.40559 -81.85523 782 ft 23 kts 230°
2026-04-30 02:23 41.40450 -81.85698 779 ft 25 kts 228°
2026-04-30 02:23 41.40332 -81.85883 777 ft 22 kts 228°
2026-04-30 02:24 41.40205 -81.85955 777 ft 22 kts 191°
2026-04-30 02:24 41.40075 -81.86086 775 ft 24 kts 231°
2026-04-30 02:24 41.39962 -81.86267 771 ft 25 kts 229°
2026-04-30 02:24 41.39844 -81.86453 765 ft 27 kts 230°
2026-04-30 02:25 41.39726 -81.86640 761 ft 24 kts 229°
2026-04-30 02:25 41.39654 -81.86801 757 ft 15 kts 289°
2026-04-30 02:25 41.39685 -81.86853 756 ft 0 kts 318°
2026-04-30 02:25 41.39687 -81.86856 756 ft 3 kts 318°
2026-04-30 02:26 41.39719 -81.86892 756 ft 7 kts 321°
2026-04-30 02:26 41.39774 -81.86947 756 ft 11 kts 340°
2026-04-30 02:26 41.39849 -81.86868 756 ft 20 kts 51°
2026-04-30 02:26 41.40086 -81.86496 762 ft 85 kts 49°
2026-04-30 02:27 41.40593 -81.85693 778 ft 140 kts 49°
2026-04-30 02:27 41.41303 -81.84574 1055 ft 164 kts 48°
2026-04-30 02:27 41.42030 -81.83443 1757 ft 163 kts 49°
2026-04-30 02:27 41.42672 -81.82203 2379 ft 167 kts 68°
2026-04-30 02:28 41.42942 -81.80672 2803 ft 179 kts 79°
2026-04-30 02:28 41.43166 -81.78980 3200 ft 193 kts 77°
2026-04-30 02:28 41.43474 -81.77161 3574 ft 209 kts 75°
2026-04-30 02:28 41.43823 -81.75237 3976 ft 225 kts 74°
2026-04-30 02:29 41.44204 -81.73141 4406 ft 241 kts 74°
2026-04-30 02:29 41.44607 -81.70895 4816 ft 257 kts 74°
2026-04-30 02:29 41.45006 -81.68540 5363 ft 267 kts 78°
2026-04-30 02:29 41.45091 -81.66041 5904 ft 277 kts 96°
2026-04-30 02:30 41.44340 -81.63631 6298 ft 291 kts 126°
2026-04-30 02:30 41.42989 -81.61676 7133 ft 289 kts 134°
2026-04-30 02:30 41.41544 -81.59807 7831 ft 291 kts 135°
2026-04-30 02:30 41.40095 -81.57915 8497 ft 295 kts 134°
2026-04-30 02:31 41.38662 -81.55991 9142 ft 298 kts 134°
2026-04-30 02:31 41.37211 -81.54014 9752 ft 302 kts 134°
2026-04-30 02:31 41.35735 -81.51988 10296 ft 309 kts 134°
2026-04-30 02:31 41.34207 -81.49892 10574 ft 326 kts 135°
2026-04-30 02:32 41.32565 -81.47677 10830 ft 343 kts 137°
2026-04-30 02:32 41.30699 -81.45673 11162 ft 353 kts 150°
2026-04-30 02:32 41.28439 -81.44353 11733 ft 355 kts 163°
2026-04-30 02:32 41.26087 -81.43388 12371 ft 358 kts 167°
2026-04-30 02:33 41.23697 -81.42494 13030 ft 360 kts 167°
2026-04-30 02:33 41.21263 -81.41574 13712 ft 363 kts 167°
2026-04-30 02:33 41.18868 -81.40600 14380 ft 366 kts 165°
2026-04-30 02:33 41.16459 -81.39449 15055 ft 370 kts 163°
2026-04-30 02:34 41.14061 -81.38193 15716 ft 373 kts 162°
2026-04-30 02:34 41.11642 -81.36898 16339 ft 377 kts 162°
2026-04-30 02:34 41.09214 -81.35602 16944 ft 380 kts 163°
2026-04-30 02:34 41.06736 -81.34293 17546 ft 382 kts 164°
2026-04-30 02:35 41.04277 -81.33009 18122 ft 385 kts 165°
2026-04-30 02:35 41.01771 -81.31709 18684 ft 387 kts 165°
2026-04-30 02:35 40.99276 -81.30422 19227 ft 390 kts 165°
2026-04-30 02:35 40.96738 -81.29116 19765 ft 393 kts 166°
2026-04-30 02:36 40.94198 -81.27810 20290 ft 396 kts 166°
2026-04-30 02:36 40.91608 -81.26480 20807 ft 398 kts 166°
2026-04-30 02:36 40.89027 -81.25157 21308 ft 401 kts 166°
2026-04-30 02:36 40.86411 -81.23815 21806 ft 404 kts 166°
2026-04-30 02:37 40.83799 -81.22476 22313 ft 406 kts 166°
2026-04-30 02:37 40.81178 -81.21133 22783 ft 409 kts 166°
2026-04-30 02:37 40.78520 -81.19774 23246 ft 412 kts 166°
2026-04-30 02:37 40.75820 -81.18393 23703 ft 414 kts 165°
2026-04-30 02:38 40.73157 -81.17031 24146 ft 417 kts 165°
2026-04-30 02:38 40.70433 -81.15640 24583 ft 420 kts 165°
2026-04-30 02:38 40.67695 -81.14242 25030 ft 422 kts 165°
2026-04-30 02:38 40.64987 -81.12861 25463 ft 425 kts 165°
2026-04-30 02:39 40.62218 -81.11450 25897 ft 428 kts 165°
2026-04-30 02:39 40.59427 -81.10030 26330 ft 430 kts 165°
2026-04-30 02:39 40.56651 -81.08617 26752 ft 433 kts 165°
2026-04-30 02:39 40.53819 -81.07178 27173 ft 435 kts 165°
2026-04-30 02:40 40.50995 -81.05744 27584 ft 437 kts 165°
2026-04-30 02:40 40.48156 -81.04304 27977 ft 440 kts 165°
2026-04-30 02:40 40.45326 -81.02869 28360 ft 442 kts 165°
2026-04-30 02:40 40.42423 -81.01400 28747 ft 445 kts 165°
2026-04-30 02:41 40.39535 -80.99939 29124 ft 447 kts 165°
2026-04-30 02:41 40.36650 -80.98479 29668 ft 444 kts 165°
2026-04-30 02:41 40.33787 -80.97028 30195 ft 442 kts 165°
2026-04-30 02:41 40.30950 -80.95592 30685 ft 440 kts 165°
2026-04-30 02:42 40.28081 -80.94144 31167 ft 438 kts 165°
2026-04-30 02:42 40.25241 -80.92712 31620 ft 437 kts 165°
2026-04-30 02:42 40.22409 -80.91286 32066 ft 436 kts 165°
2026-04-30 02:42 40.19564 -80.89856 32505 ft 435 kts 165°
2026-04-30 02:43 40.16730 -80.88432 32938 ft 434 kts 165°
2026-04-30 02:43 40.13900 -80.87013 33299 ft 434 kts 165°
2026-04-30 02:43 40.11075 -80.85597 33653 ft 434 kts 165°
2026-04-30 02:43 40.08259 -80.84191 34000 ft 434 kts 166°
2026-04-30 02:44 40.05425 -80.82897 34335 ft 431 kts 169°
2026-04-30 02:44 40.02555 -80.81934 34648 ft 425 kts 176°
2026-04-30 02:44 39.99644 -80.81400 34964 ft 419 kts 182°
2026-04-30 02:44 39.96755 -80.81212 35276 ft 416 kts 186°
2026-04-30 02:45 39.93862 -80.81184 35572 ft 414 kts 187°
2026-04-30 02:45 39.91008 -80.81206 35802 ft 414 kts 188°
2026-04-30 02:45 39.88137 -80.81233 35939 ft 416 kts 188°
2026-04-30 02:46 39.82312 -80.81252 35946 ft 415 kts 188°
2026-04-30 02:46 39.76596 -80.81216 35941 ft 413 kts 188°
2026-04-30 02:47 39.70819 -80.81152 35940 ft 414 kts 188°
2026-04-30 02:47 39.65078 -80.81069 35938 ft 413 kts 188°
2026-04-30 02:48 39.59337 -80.80978 35939 ft 414 kts 188°
2026-04-30 02:48 39.53589 -80.80884 35940 ft 414 kts 188°
2026-04-30 02:49 39.47828 -80.80788 35940 ft 414 kts 188°
2026-04-30 02:49 39.42060 -80.80692 35940 ft 414 kts 188°
2026-04-30 02:50 39.36304 -80.80595 35941 ft 414 kts 188°
2026-04-30 02:50 39.30586 -80.80499 35941 ft 414 kts 188°
2026-04-30 02:51 39.24799 -80.80403 35941 ft 414 kts 188°
2026-04-30 02:51 39.19051 -80.80308 35943 ft 414 kts 188°
2026-04-30 02:52 39.13296 -80.80213 35946 ft 414 kts 188°
2026-04-30 02:52 39.07567 -80.80119 35948 ft 415 kts 188°
2026-04-30 02:53 39.01774 -80.80022 35948 ft 415 kts 188°
2026-04-30 02:53 38.96025 -80.79928 35950 ft 415 kts 188°
2026-04-30 02:54 38.90236 -80.79831 35952 ft 414 kts 189°
2026-04-30 02:54 38.84481 -80.79736 35956 ft 414 kts 189°
2026-04-30 02:55 38.78737 -80.79643 35959 ft 414 kts 189°
2026-04-30 02:55 38.73006 -80.79550 35961 ft 414 kts 189°
2026-04-30 02:56 38.67217 -80.79456 35961 ft 415 kts 189°
2026-04-30 02:56 38.61489 -80.79362 35962 ft 414 kts 189°
2026-04-30 02:57 38.55720 -80.79266 35962 ft 414 kts 189°
2026-04-30 02:57 38.49976 -80.79172 35963 ft 414 kts 189°
2026-04-30 02:58 38.44216 -80.79078 35964 ft 414 kts 189°
2026-04-30 02:58 38.38441 -80.78985 35967 ft 414 kts 189°
2026-04-30 02:59 38.32695 -80.78892 35972 ft 413 kts 190°
2026-04-30 02:59 38.26984 -80.78799 35978 ft 413 kts 190°
2026-04-30 03:00 38.21217 -80.78706 35983 ft 413 kts 190°
2026-04-30 03:00 38.15487 -80.78612 35985 ft 413 kts 190°
2026-04-30 03:01 38.09723 -80.78519 35986 ft 413 kts 190°
2026-04-30 03:01 38.03975 -80.78430 35980 ft 413 kts 190°
2026-04-30 03:02 37.98249 -80.78338 35974 ft 413 kts 190°
2026-04-30 03:02 37.92517 -80.78245 35981 ft 414 kts 190°
2026-04-30 03:03 37.86720 -80.78155 35988 ft 416 kts 191°
2026-04-30 03:03 37.78062 -80.78016 36000 ft 415 kts 191°
2026-04-30 03:04 37.72314 -80.77925 36006 ft 415 kts 191°
2026-04-30 03:04 37.66526 -80.77832 35999 ft 415 kts 191°
2026-04-30 03:05 37.60764 -80.77739 35991 ft 415 kts 191°
2026-04-30 03:05 37.55000 -80.77647 35983 ft 415 kts 191°
2026-04-30 03:06 37.49179 -80.77555 35977 ft 415 kts 191°
2026-04-30 03:06 37.43424 -80.77464 35977 ft 415 kts 191°
2026-04-30 03:07 37.37638 -80.77372 35962 ft 414 kts 192°
2026-04-30 03:07 37.31912 -80.77279 35962 ft 413 kts 192°
2026-04-30 03:08 37.26168 -80.77188 35985 ft 413 kts 193°
2026-04-30 03:08 37.20416 -80.77101 35983 ft 413 kts 193°
2026-04-30 03:09 37.14661 -80.77012 35975 ft 414 kts 193°
2026-04-30 03:09 37.08937 -80.76921 35972 ft 413 kts 193°
2026-04-30 03:10 37.03188 -80.76831 35970 ft 413 kts 193°
2026-04-30 03:10 36.97430 -80.76743 35968 ft 414 kts 193°
2026-04-30 03:11 36.91677 -80.76654 35969 ft 414 kts 193°
2026-04-30 03:11 36.85899 -80.76562 35972 ft 414 kts 194°
2026-04-30 03:12 36.80155 -80.76471 35972 ft 414 kts 194°
2026-04-30 03:12 36.74415 -80.76382 35966 ft 413 kts 194°
2026-04-30 03:13 36.68678 -80.76293 35953 ft 413 kts 194°
2026-04-30 03:13 36.62949 -80.76205 35945 ft 413 kts 194°
2026-04-30 03:14 36.57176 -80.76117 35937 ft 413 kts 194°
2026-04-30 03:14 36.51436 -80.76030 35927 ft 413 kts 194°
2026-04-30 03:15 36.45694 -80.75938 35923 ft 413 kts 194°
2026-04-30 03:15 36.39949 -80.75852 35927 ft 414 kts 194°
2026-04-30 03:16 36.34186 -80.75765 35933 ft 415 kts 194°
2026-04-30 03:16 36.28445 -80.75675 35941 ft 414 kts 194°
2026-04-30 03:17 36.22674 -80.75586 35946 ft 414 kts 194°
2026-04-30 03:17 36.16920 -80.75497 35948 ft 414 kts 194°
2026-04-30 03:18 36.11146 -80.75409 35947 ft 414 kts 195°
2026-04-30 03:18 36.05419 -80.75322 35942 ft 414 kts 195°
2026-04-30 03:19 35.99650 -80.75233 35938 ft 413 kts 195°
2026-04-30 03:19 35.93921 -80.75146 35937 ft 413 kts 195°
2026-04-30 03:20 35.88142 -80.75062 35935 ft 414 kts 195°
2026-04-30 03:20 35.82376 -80.74979 35930 ft 417 kts 195°
2026-04-30 03:21 35.76585 -80.74893 35926 ft 418 kts 195°
2026-04-30 03:21 35.70780 -80.74801 35923 ft 417 kts 195°
2026-04-30 03:22 35.64962 -80.74712 35919 ft 418 kts 195°
2026-04-30 03:22 35.59135 -80.74626 35915 ft 419 kts 195°
2026-04-30 03:23 35.53330 -80.74538 35913 ft 420 kts 194°
2026-04-30 03:23 35.47492 -80.74448 35917 ft 420 kts 194°
2026-04-30 03:24 35.41647 -80.74359 35921 ft 420 kts 194°
2026-04-30 03:24 35.35808 -80.74268 35924 ft 419 kts 194°
2026-04-30 03:25 35.29967 -80.74181 35926 ft 420 kts 194°
2026-04-30 03:25 35.24119 -80.74097 35926 ft 421 kts 194°
2026-04-30 03:26 35.18280 -80.74013 35923 ft 422 kts 194°
2026-04-30 03:26 35.12378 -80.73926 35917 ft 423 kts 194°
2026-04-30 03:27 35.06500 -80.73838 35911 ft 424 kts 194°
2026-04-30 03:27 35.00590 -80.73748 35905 ft 424 kts 194°
2026-04-30 03:28 34.94679 -80.73659 35901 ft 424 kts 194°
2026-04-30 03:28 34.88788 -80.73573 35897 ft 426 kts 194°
2026-04-30 03:29 34.82827 -80.73486 35895 ft 427 kts 193°
2026-04-30 03:29 34.76909 -80.73399 35895 ft 428 kts 193°
2026-04-30 03:30 34.70927 -80.73309 35896 ft 429 kts 193°
2026-04-30 03:30 34.64944 -80.73219 35897 ft 428 kts 193°
2026-04-30 03:31 34.58997 -80.73131 35898 ft 429 kts 193°
2026-04-30 03:31 34.53018 -80.73045 35897 ft 430 kts 193°
2026-04-30 03:32 34.47044 -80.72958 35896 ft 431 kts 193°
2026-04-30 03:32 34.41039 -80.72871 35895 ft 432 kts 193°
2026-04-30 03:33 34.35049 -80.72784 35895 ft 432 kts 193°
2026-04-30 03:33 34.29029 -80.72695 35897 ft 432 kts 193°
2026-04-30 03:34 34.23000 -80.72607 35898 ft 432 kts 193°
2026-04-30 03:34 34.17024 -80.72612 35896 ft 431 kts 194°
2026-04-30 03:35 34.14028 -80.72639 35704 ft 431 kts 193°
2026-04-30 03:35 34.11024 -80.72646 35279 ft 431 kts 193°
2026-04-30 03:35 34.08033 -80.72639 34713 ft 435 kts 193°
2026-04-30 03:35 34.04982 -80.72624 34064 ft 441 kts 193°
2026-04-30 03:36 34.01911 -80.72599 33460 ft 442 kts 192°
2026-04-30 03:36 33.98834 -80.72559 32802 ft 441 kts 192°
2026-04-30 03:36 33.95808 -80.72508 32228 ft 436 kts 192°
2026-04-30 03:36 33.92787 -80.72443 31676 ft 432 kts 191°
2026-04-30 03:37 33.89787 -80.72372 31143 ft 426 kts 191°
2026-04-30 03:37 33.86842 -80.72313 30634 ft 421 kts 191°
2026-04-30 03:37 33.83935 -80.72252 30138 ft 417 kts 191°
2026-04-30 03:37 33.81054 -80.72181 29658 ft 412 kts 191°
2026-04-30 03:38 33.78199 -80.72123 29174 ft 408 kts 191°
2026-04-30 03:38 33.75381 -80.72073 28701 ft 405 kts 191°
2026-04-30 03:38 33.72580 -80.72046 28220 ft 402 kts 191°
2026-04-30 03:38 33.69784 -80.72021 27734 ft 400 kts 190°
2026-04-30 03:39 33.67032 -80.71982 27248 ft 398 kts 190°
2026-04-30 03:39 33.64267 -80.71938 26745 ft 396 kts 189°
2026-04-30 03:39 33.61529 -80.71892 26247 ft 394 kts 189°
2026-04-30 03:39 33.58786 -80.71841 25746 ft 392 kts 188°
2026-04-30 03:40 33.56073 -80.71787 25250 ft 390 kts 188°
2026-04-30 03:40 33.53348 -80.71733 24751 ft 388 kts 188°
2026-04-30 03:40 33.50675 -80.71681 24254 ft 385 kts 188°
2026-04-30 03:40 33.48019 -80.71631 23765 ft 383 kts 187°
2026-04-30 03:41 33.45348 -80.71581 23276 ft 380 kts 187°
2026-04-30 03:41 33.42723 -80.71532 22796 ft 378 kts 187°
2026-04-30 03:41 33.40105 -80.71485 22316 ft 375 kts 187°
2026-04-30 03:41 33.37484 -80.71435 21835 ft 373 kts 186°
2026-04-30 03:42 33.34914 -80.71388 21374 ft 371 kts 186°
2026-04-30 03:42 33.32357 -80.71343 20936 ft 368 kts 186°
2026-04-30 03:42 33.29800 -80.71300 20472 ft 366 kts 186°
2026-04-30 03:42 33.27261 -80.71255 20003 ft 365 kts 186°
2026-04-30 03:43 33.24720 -80.71212 19532 ft 363 kts 185°
2026-04-30 03:43 33.22204 -80.71169 19064 ft 361 kts 185°
2026-04-30 03:43 33.19703 -80.71127 18598 ft 359 kts 185°
2026-04-30 03:43 33.17186 -80.71085 18130 ft 357 kts 185°
2026-04-30 03:44 33.14728 -80.71043 17679 ft 355 kts 185°
2026-04-30 03:44 33.12274 -80.71000 17248 ft 352 kts 184°
2026-04-30 03:44 33.09805 -80.70956 16795 ft 350 kts 184°
2026-04-30 03:44 33.07402 -80.70913 16345 ft 348 kts 184°
2026-04-30 03:45 33.04973 -80.70869 15890 ft 345 kts 184°
2026-04-30 03:45 33.02605 -80.70828 15445 ft 343 kts 184°
2026-04-30 03:45 33.00203 -80.70786 14994 ft 340 kts 184°
2026-04-30 03:45 32.97853 -80.70746 14551 ft 338 kts 184°
2026-04-30 03:46 32.95512 -80.70704 14111 ft 336 kts 183°
2026-04-30 03:46 32.93176 -80.70662 13668 ft 334 kts 183°
2026-04-30 03:46 32.90881 -80.70622 13233 ft 332 kts 183°
2026-04-30 03:46 32.88582 -80.70585 12796 ft 330 kts 183°
2026-04-30 03:47 32.86274 -80.70546 12360 ft 328 kts 182°
2026-04-30 03:47 32.84002 -80.70499 11929 ft 326 kts 182°
2026-04-30 03:47 32.81750 -80.70453 11502 ft 324 kts 182°
2026-04-30 03:47 32.79507 -80.70409 11076 ft 323 kts 182°
2026-04-30 03:48 32.77269 -80.70375 10653 ft 321 kts 182°
2026-04-30 03:48 32.75039 -80.70342 10230 ft 320 kts 182°
2026-04-30 03:48 32.72821 -80.70305 9986 ft 311 kts 182°
2026-04-30 03:48 32.70718 -80.70313 9984 ft 293 kts 189°
2026-04-30 03:49 32.68886 -80.71040 9989 ft 264 kts 220°
2026-04-30 03:49 32.67599 -80.72456 9989 ft 245 kts 227°
2026-04-30 03:49 32.66162 -80.73433 9991 ft 242 kts 197°
2026-04-30 03:49 32.64450 -80.73383 9695 ft 252 kts 172°
2026-04-30 03:50 32.62706 -80.72920 9215 ft 260 kts 174°
2026-04-30 03:50 32.60892 -80.72697 8721 ft 266 kts 183°
2026-04-30 03:50 32.59043 -80.72717 8244 ft 271 kts 187°
2026-04-30 03:50 32.57141 -80.72829 7860 ft 272 kts 188°
2026-04-30 03:51 32.55276 -80.72945 7557 ft 269 kts 187°
2026-04-30 03:51 32.53399 -80.73044 7277 ft 264 kts 187°
2026-04-30 03:51 32.51594 -80.73126 7008 ft 261 kts 187°
2026-04-30 03:51 32.49776 -80.73205 6738 ft 256 kts 187°
2026-04-30 03:52 32.48004 -80.73285 6475 ft 253 kts 187°
2026-04-30 03:52 32.46261 -80.73360 6214 ft 249 kts 187°
2026-04-30 03:52 32.44530 -80.73435 5955 ft 246 kts 187°
2026-04-30 03:52 32.42847 -80.73622 5698 ft 237 kts 200°
2026-04-30 03:53 32.41425 -80.74475 5483 ft 224 kts 220°
2026-04-30 03:53 32.40200 -80.75568 5292 ft 218 kts 222°
2026-04-30 03:53 32.39007 -80.76657 5093 ft 214 kts 222°
2026-04-30 03:53 32.37838 -80.77713 4887 ft 210 kts 220°
2026-04-30 03:54 32.36677 -80.78684 4786 ft 202 kts 219°
2026-04-30 03:54 32.35447 -80.79449 4695 ft 196 kts 204°
2026-04-30 03:54 32.34160 -80.79938 4535 ft 192 kts 202°
2026-04-30 03:54 32.32883 -80.80399 4321 ft 191 kts 202°
2026-04-30 03:55 32.31622 -80.80865 4105 ft 189 kts 202°
2026-04-30 03:55 32.30371 -80.81331 3886 ft 188 kts 202°
2026-04-30 03:55 32.29144 -80.81854 3664 ft 186 kts 206°
2026-04-30 03:55 32.27952 -80.82452 3443 ft 185 kts 207°
2026-04-30 03:56 32.26769 -80.83058 3226 ft 184 kts 207°
2026-04-30 03:56 32.25597 -80.83663 3017 ft 183 kts 206°
2026-04-30 03:56 32.24436 -80.84273 2805 ft 182 kts 207°
2026-04-30 03:56 32.23290 -80.84895 2597 ft 181 kts 207°
2026-04-30 03:57 32.22154 -80.85513 2389 ft 179 kts 207°
2026-04-30 03:57 32.21020 -80.86130 2165 ft 179 kts 207°
2026-04-30 03:57 32.19861 -80.86647 2001 ft 178 kts 189°
2026-04-30 03:57 32.18653 -80.86359 1999 ft 187 kts 153°
2026-04-30 03:58 32.17635 -80.85370 2000 ft 190 kts 141°
2026-04-30 03:58 32.16743 -80.84216 1999 ft 192 kts 127°
2026-04-30 03:58 32.16073 -80.82834 1999 ft 193 kts 122°
2026-04-30 03:58 32.15440 -80.81443 1998 ft 193 kts 117°
2026-04-30 03:59 32.14859 -80.80009 1956 ft 194 kts 126°
2026-04-30 03:59 32.14120 -80.78702 1824 ft 193 kts 121°
2026-04-30 03:59 32.13754 -80.77221 1789 ft 183 kts 95°
2026-04-30 03:59 32.13933 -80.75793 1805 ft 172 kts 72°
2026-04-30 04:00 32.14515 -80.74625 1742 ft 160 kts 49°
2026-04-30 04:00 32.15342 -80.73803 1540 ft 154 kts 27°
2026-04-30 04:00 32.16307 -80.73296 1296 ft 152 kts 21°
2026-04-30 04:00 32.17265 -80.72774 1071 ft 150 kts 24°
2026-04-30 04:01 32.18190 -80.72223 889 ft 147 kts 26°
2026-04-30 04:01 32.19087 -80.71681 707 ft 144 kts 25°
2026-04-30 04:01 32.19999 -80.71143 501 ft 148 kts 25°
2026-04-30 04:01 32.20910 -80.70620 268 ft 142 kts 25°
2026-04-30 04:02 32.21808 -80.70116 58 ft 143 kts 26°
2026-04-30 04:02 32.22583 -80.69669 15 ft 87 kts 26°
2026-04-30 04:02 32.22897 -80.69486 14 ft 32 kts 25°
2026-04-30 04:02 32.22938 -80.69387 14 ft 8 kts 111°
2026-04-30 04:03 32.22935 -80.69379 14 ft 0 kts 102°
2026-04-30 04:03 32.22979 -80.69334 14 ft 17 kts 27°
2026-04-30 04:03 32.23029 -80.69334 14 ft 3 kts 312°
2026-04-30 04:03 32.23034 -80.69401 14 ft 13 kts 232°
2026-04-30 04:04 32.22918 -80.69474 14 ft 21 kts 206°
2026-04-30 04:04 32.22784 -80.69553 14 ft 24 kts 206°
2026-04-30 04:04 32.22557 -80.69680 14 ft 38 kts 206°
2026-04-30 04:04 32.22324 -80.69816 14 ft 36 kts 207°
2026-04-30 04:05 32.22095 -80.69945 14 ft 36 kts 204°
2026-04-30 04:05 32.21930 -80.70064 14 ft 15 kts 262°
2026-04-30 04:05 32.21973 -80.70118 14 ft 9 kts 12°
2026-04-30 04:05 32.22053 -80.70077 14 ft 19 kts 25°
2026-04-30 04:06 32.22173 -80.70004 14 ft 18 kts 24°
2026-04-30 04:06 32.22294 -80.69936 14 ft 19 kts 25°
2026-04-30 04:06 32.22415 -80.69866 14 ft 21 kts 25°
2026-04-30 04:06 32.22549 -80.69790 14 ft 18 kts 25°
2026-04-30 04:07 32.22593 -80.69788 14 ft 1 kts 324°
2026-04-30 04:07 32.22610 -80.69801 14 ft 8 kts 322°
2026-04-30 04:07 32.22633 -80.69823 14 ft 0 kts 321°